Tracking 31027 objects as of 19-Jul-2025
HD Live streaming from Space Station
objects crossing your sky now

STARLINK-5375

Track STARLINK-5375 now!
10-day predictions
STARLINK-5375 is classified as:


NORAD ID: 56140
Int'l Code: 2023-046BA
Perigee: 565.3 km
Apogee: 567.2 km
Inclination: 43.0 °
Period: 95.8 minutes
Semi major axis: 6937 km
RCS: Unknown
Launch date: March 29, 2023
Source: United States (US)
Launch site: AIR FORCE EASTERN TEST RANGE (AFETR)
Your satellite tracking list
NOAA 16 DEB
Track 1 satellite(s)




NASA's NSSDC Master Catalog

Two Line Element Set (TLE):
1 56140U 23046BA  25199.75816274 -.00000166  00000-0  28146-5 0  9997
2 56140  43.0042 337.0016 0001391 266.6513  93.4170 15.02532028127028
Source of the keplerian elements: AFSPC